When you browse on this site, cookies collect data to enhance your experience and personalize the content and advertising you see.
Visit our Privacy Policy to learn more. By continuing to use the site, you agree to this use of cookies and data.
  • In Czech Republic
  • List of Countries
  • For 7 days
  • Water Temperature
  • Weather Map
  • Weather Widgets
  • user-avatar
    Login

    Hourly Weather Achaea

    Today, 26 January, Sunday

    Time Temperature Precipitation Wind Pressure Humidity
    00:00 +5°C° 0 mm 2 mps 690 mmHg 89%
    01:00 +4°C° 0 mm 2 mps 690 mmHg 88%
    02:00 +5°C° 0 mm 1 mps 690 mmHg 85%
    03:00 +5°C° 0 mm 1 mps 690 mmHg 82%
    04:00 +5°C° 0 mm 1 mps 689 mmHg 79%
    05:00 +5°C° 0 mm 1 mps 689 mmHg 77%
    06:00 +5°C° 0 mm 1 mps 689 mmHg 74%
    07:00 +5°C° 0 mm 1 mps 690 mmHg 72%
    08:00 +7°C° 0 mm 1 mps 690 mmHg 66%
    09:00 +9°C° 0 mm 1 mps 690 mmHg 60%
    10:00 +10°C° 0 mm 1 mps 691 mmHg 54%
    11:00 +10°C° 0 mm 2 mps 690 mmHg 54%
    12:00 +10°C° 0 mm 2 mps 690 mmHg 53%
    13:00 +12°C° 0 mm 2 mps 689 mmHg 52%
    14:00 +10°C° 0 mm 2 mps 689 mmHg 59%
    15:00 +9°C° 0 mm 2 mps 689 mmHg 67%
    16:00 +9°C° 0 mm 2 mps 689 mmHg 74%
    17:00 +8°C° 0 mm 2 mps 688 mmHg 76%
    18:00 +8°C° 0 mm 2 mps 688 mmHg 79%
    19:00 +8°C° 0 mm 1 mps 688 mmHg 81%
    20:00 +8°C° 0 mm 1 mps 688 mmHg 83%
    21:00 +8°C° 0 mm 1 mps 688 mmHg 85%
    22:00 +6°C° 0 mm 2 mps 688 mmHg 87%
    23:00 +6°C° 0 mm 2 mps 687 mmHg 87%

    Tomorrow, 27 January, Monday

    Time Temperature Precipitation Wind Pressure Humidity
    00:00 +7°C° 0 mm 1 mps 687 mmHg 87%
    01:00 +7°C° 0 mm 1 mps 687 mmHg 87%
    02:00 +6°C° 0.4 mm 2 mps 687 mmHg 88%
    03:00 +7°C° 0.4 mm 2 mps 686 mmHg 90%
    04:00 +7°C° 0.4 mm 2 mps 686 mmHg 91%
    05:00 +7°C° 4.6 mm 2 mps 686 mmHg 93%
    06:00 +6°C° 4.6 mm 2 mps 686 mmHg 94%
    07:00 +5°C° 4.6 mm 3 mps 686 mmHg 96%
    08:00 +6°C° 2.3 mm 2 mps 686 mmHg 95%
    09:00 +6°C° 2.3 mm 2 mps 686 mmHg 93%
    10:00 +6°C° 2.3 mm 2 mps 686 mmHg 92%
    11:00 +6°C° 2.1 mm 2 mps 685 mmHg 93%
    12:00 +6°C° 2.1 mm 2 mps 685 mmHg 95%
    13:00 +6°C° 2.1 mm 2 mps 685 mmHg 97%
    14:00 +6°C° 1 mm 2 mps 684 mmHg 95%
    15:00 +7°C° 1 mm 2 mps 684 mmHg 93%
    16:00 +7°C° 1 mm 2 mps 684 mmHg 91%
    17:00 +6°C° 0.1 mm 2 mps 684 mmHg 91%
    18:00 +5°C° 0.1 mm 2 mps 684 mmHg 92%
    19:00 +5°C° 0.1 mm 2 mps 685 mmHg 92%
    20:00 +4°C° 0 mm 2 mps 685 mmHg 92%
    21:00 +4°C° 0 mm 2 mps 685 mmHg 93%
    22:00 +4°C° 0 mm 2 mps 685 mmHg 93%
    23:00 +4°C° 0.1 mm 2 mps 685 mmHg 94%

    Day after tomorrow, 28 January, Tuesday

    Time Temperature Precipitation Wind Pressure Humidity
    00:00 +4°C° 0.1 mm 2 mps 685 mmHg 94%
    01:00 +4°C° 0.1 mm 2 mps 685 mmHg 95%
    02:00 +4°C° 0 mm 2 mps 685 mmHg 95%
    03:00 +4°C° 0 mm 2 mps 685 mmHg 94%
    04:00 +4°C° 0 mm 2 mps 685 mmHg 94%
    05:00 +4°C° 0 mm 2 mps 685 mmHg 93%
    06:00 +4°C° 0 mm 2 mps 685 mmHg 92%
    07:00 +4°C° 0 mm 2 mps 685 mmHg 92%
    08:00 +5°C° 0 mm 2 mps 685 mmHg 86%
    09:00 +7°C° 0 mm 3 mps 686 mmHg 81%
    10:00 +8°C° 0 mm 3 mps 686 mmHg 75%
    11:00 +8°C° 0 mm 3 mps 686 mmHg 73%
    12:00 +9°C° 0 mm 3 mps 686 mmHg 71%
    13:00 +9°C° 0 mm 3 mps 685 mmHg 68%
    14:00 +9°C° 0 mm 3 mps 685 mmHg 73%
    15:00 +8°C° 0 mm 3 mps 685 mmHg 77%
    16:00 +7°C° 0 mm 3 mps 684 mmHg 81%
    17:00 +5°C° 0.1 mm 3 mps 684 mmHg 85%
    18:00 +5°C° 0.1 mm 3 mps 684 mmHg 89%
    19:00 +4°C° 0.1 mm 3 mps 684 mmHg 93%
    20:00 +4°C° 0.1 mm 3 mps 684 mmHg 92%
    21:00 +4°C° 0.1 mm 3 mps 684 mmHg 92%
    22:00 +4°C° 0.1 mm 3 mps 684 mmHg 92%
    23:00 +4°C° 0 mm 3 mps 684 mmHg 93%

    29 January, Wednesday

    Time Temperature Precipitation Wind Pressure Humidity
    00:00 +4°C° 0 mm 3 mps 684 mmHg 93%
    01:00 +4°C° 0 mm 3 mps 683 mmHg 94%
    02:00 +4°C° 0.1 mm 3 mps 683 mmHg 94%
    03:00 +4°C° 0.1 mm 3 mps 683 mmHg 94%
    04:00 +4°C° 0.1 mm 3 mps 683 mmHg 94%
    05:00 +4°C° 0.1 mm 4 mps 683 mmHg 94%
    06:00 +4°C° 0.1 mm 4 mps 683 mmHg 94%
    07:00 +4°C° 0.1 mm 4 mps 683 mmHg 94%
    08:00 +5°C° 0.2 mm 4 mps 683 mmHg 93%
    09:00 +6°C° 0.2 mm 4 mps 683 mmHg 91%
    10:00 +7°C° 0.2 mm 5 mps 683 mmHg 90%
    11:00 +7°C° 0.2 mm 5 mps 683 mmHg 86%
    12:00 +7°C° 0.2 mm 5 mps 683 mmHg 83%
    13:00 +8°C° 0.2 mm 5 mps 682 mmHg 80%
    14:00 +7°C° 0.1 mm 5 mps 682 mmHg 81%
    15:00 +7°C° 0.1 mm 5 mps 682 mmHg 81%
    16:00 +7°C° 0.1 mm 4 mps 682 mmHg 82%
    17:00 +6°C° 0.1 mm 4 mps 683 mmHg 85%
    18:00 +5°C° 0.1 mm 4 mps 683 mmHg 88%
    19:00 +5°C° 0.1 mm 3 mps 683 mmHg 92%
    20:00 +5°C° 0.1 mm 3 mps 683 mmHg 92%
    21:00 +4°C° 0.1 mm 3 mps 683 mmHg 91%
    22:00 +4°C° 0.1 mm 3 mps 683 mmHg 91%
    23:00 +4°C° 0.2 mm 3 mps 683 mmHg 91%

    30 January, Thursday

    Time Temperature Precipitation Wind Pressure Humidity
    00:00 +4°C° 0.2 mm 3 mps 683 mmHg 92%
    01:00 +4°C° 0.2 mm 3 mps 683 mmHg 92%
    02:00 +3°C° 0.2 mm 3 mps 683 mmHg 92%
    03:00 +3°C° 0.2 mm 3 mps 682 mmHg 93%
    04:00 +3°C° 0.2 mm 4 mps 682 mmHg 93%
    05:00 +3°C° 0.2 mm 3 mps 682 mmHg 93%
    06:00 +3°C° 0.2 mm 3 mps 682 mmHg 92%
    07:00 +3°C° 0.2 mm 3 mps 683 mmHg 92%
    08:00 +4°C° 0.1 mm 3 mps 683 mmHg 87%
    09:00 +5°C° 0.1 mm 3 mps 683 mmHg 82%
    10:00 +8°C° 0.1 mm 3 mps 684 mmHg 78%
    11:00 +7°C° 0.2 mm 4 mps 684 mmHg 77%
    12:00 +7°C° 0.2 mm 4 mps 683 mmHg 77%
    13:00 +7°C° 0.2 mm 4 mps 683 mmHg 77%
    14:00 +7°C° 0.2 mm 4 mps 683 mmHg 77%
    15:00 +6°C° 0.2 mm 4 mps 683 mmHg 78%
    16:00 +6°C° 0.2 mm 5 mps 682 mmHg 79%
    17:00 +5°C° 0 mm 4 mps 683 mmHg 81%
    18:00 +4°C° 0 mm 4 mps 683 mmHg 84%
    19:00 +3°C° 0 mm 3 mps 683 mmHg 86%
    20:00 +3°C° 0 mm 3 mps 684 mmHg 87%
    21:00 +3°C° 0 mm 3 mps 684 mmHg 87%
    22:00 +2°C° 0 mm 3 mps 685 mmHg 87%
    23:00 +3°C° 0 mm 2 mps 685 mmHg 87%

    31 January, Friday

    Time Temperature Precipitation Wind Pressure Humidity
    00:00 +2°C° 0 mm 2 mps 685 mmHg 87%
    01:00 +2°C° 0 mm 2 mps 685 mmHg 86%
    02:00 +1°C° 0 mm 2 mps 685 mmHg 86%
    03:00 +1°C° 0 mm 2 mps 685 mmHg 85%
    04:00 +1°C° 0 mm 2 mps 686 mmHg 85%
    05:00 -1°C° 0 mm 2 mps 686 mmHg 80%
    06:00 -1°C° 0 mm 2 mps 686 mmHg 75%
    07:00 -1°C° 0 mm 2 mps 686 mmHg 69%
    08:00 +3°C° 0 mm 1 mps 687 mmHg 61%
    09:00 +5°C° 0 mm 1 mps 688 mmHg 52%
    10:00 +7°C° 0 mm 1 mps 689 mmHg 43%
    11:00 +8°C° 0 mm 1 mps 688 mmHg 41%
    12:00 +8°C° 0 mm 1 mps 688 mmHg 39%
    13:00 +8°C° 0 mm 2 mps 688 mmHg 37%
    14:00 +8°C° 0 mm 1 mps 688 mmHg 44%
    15:00 +7°C° 0 mm 1 mps 688 mmHg 51%
    16:00 +6°C° 0 mm 1 mps 688 mmHg 58%
    17:00 +5°C° 0 mm 1 mps 687 mmHg 64%
    18:00 +4°C° 0 mm 1 mps 687 mmHg 70%
    19:00 +3°C° 0 mm 1 mps 687 mmHg 77%
    20:00 +3°C° 0 mm 1 mps 687 mmHg 78%
    21:00 +2°C° 0 mm 1 mps 687 mmHg 80%
    22:00 +2°C° 0 mm 1 mps 687 mmHg 81%
    23:00 +2°C° 0 mm 1 mps 687 mmHg 80%
    Show more